Home   Weather   South Bend   Past weeks

Flag for USA Past Weather in South Bend, Indiana, USA — Yesterday and Last 2 Weeks

Now
37 °F

Overcast.


Feels Like: 30 °F
Forecast: 39 / 45 °F
Wind: 10 mph from Southeast

Location: Michiana Regional Airport

Current Time: Jan 19, 2017 at 9:01:32 pm

Latest Report: Jan 19, 2017 at 7:54 pm


Visibility: 7 mi

Pressure: 29.90 "Hg

Humidity: 93%

Dew Point: 35 °F

Location of South BendLocation

Past Weather in South Bend — Graph

°F

South Bend Temperature Yesterday

Maximum temperature yesterday: 35 °F (at 8:54 pm)
Minimum temperature yesterday: 33 °F (at 6:54 am)
Average temperature yesterday: 34 °F

High & Low Weather Summary for the Past Weeks

 TemperatureHumidityPressure
High52 °F (Jan 11, 8:18 pm)100% (Jan 11, 3:32 pm)30.78 "Hg (Jan 11, 3:32 pm)
Low-3 °F (Jan 7, 4:54 am)59% (Jan 9, 12:54 am)29.36 "Hg (Jan 10, 3:54 pm)
Average25 °F85%30.18 "Hg
* Reported Jan 4 6:54 pm — Jan 19 6:54 pm, South Bend, Weather by CustomWeather, © 2017

Note: Actual official high and low records may vary slightly from our data, if they occured in-between our weather recording intervals... More about our weather records

Advertising

South Bend Weather History for the Previous 24 Hours

Scroll right to see more
 ConditionsComfort  
Time TempWeatherWind HumidityBarometerVisibility
6:54 pm
Thu, Jan 19
38 °FOvercast.8 mph90%29.89 "Hg7 mi
5:54 pm37 °FPassing clouds.8 mph93%29.91 "Hg8 mi
4:54 pm38 °FSunny.9 mph90%29.92 "Hg7 mi
3:54 pm38 °FFog.8 mph90%29.95 "Hg6 mi
2:54 pm38 °FFog.9 mph90%29.97 "Hg5 mi
1:54 pm37 °FFog.8 mph96%29.97 "Hg4 mi
12:54 pm37 °FFog.6 mph93%30.00 "Hg2 mi
11:54 am36 °FFog.7 mph97%30.03 "Hg2 mi
10:54 am35 °FFog.8 mph96%30.06 "Hg2 mi
9:54 am34 °FFog.8 mph100%30.06 "Hg2 mi
8:54 am34 °FFog.8 mph97%30.06 "Hg1 mi
7:54 am33 °FFog.6 mph100%30.08 "Hg1 mi
6:54 am33 °FFog.10 mph100%30.09 "Hg4 mi
5:54 am34 °FFog.8 mph97%30.08 "Hg5 mi
5:28 am34 °FFog.7 mph97%30.06 "Hg6 mi
4:54 am34 °FLow clouds.8 mph97%30.09 "Hg8 mi
3:54 am34 °FLow clouds.6 mph92%30.10 "Hg9 mi
3:11 am34 °FLow clouds.7 mph92%30.08 "Hg10 mi
3:01 am34 °FOvercast.8 mph92%30.09 "Hg10 mi
2:22 am34 °FLow clouds.9 mph92%30.08 "Hg9 mi
1:54 am34 °FOvercast.8 mph92%30.09 "Hg9 mi
12:54 am34 °FLow clouds.8 mph92%30.09 "Hg8 mi
12:39 am34 °FLow clouds.12 mph97%30.08 "Hg8 mi
11:54 pm
Wed, Jan 18
35 °FOvercast.12 mph88%30.11 "Hg8 mi
10:54 pm35 °FOvercast.10 mph92%30.10 "Hg9 mi
9:54 pm35 °FOvercast.10 mph92%30.11 "Hg10 mi
Weather by CustomWeather, © 2017

See weather overviewHow to use our weather pages